SCP
1 1 0 0 0 0 0 0 0 0 0 0 0 0 0 0 0 0 0 0 0 0 0 0 0 0 0 0 0 0 0 0 0 0 0 0 0 0 0 0 0 0 0
1 1 0 0 0 0 0 0 0 0 0 0 0 0 0 0 0 0 0 0 0 0 0 0 0 0 0 0 0 0 0 0 0 0 0 0 0 0 0 0 0 0 0
1 1 0 0 0 0 0 0 0 0 0 0 0 0 0 0 0 0 0 0 0 0 0 0 0 0 0 0 0 0 0 0 0 0 0 0 0 0 0 0 0 0 0
1 1 0 0 0 0 0 0 0 0 0 0 0 0 0 0 0 0 0 0 0 0 0 0 0 0 0 0 0 0 0 0 0 0 0 0 0 0 0 0 0 0 0
1 1 0 0 0 0 0 0 0 0 0 0 0 0 0 0 0 0 0 0 0 0 0 0 0 0 0 0 0 0 0 0 0 0 0 0 0 0 0 0 0 0 0
0 0 0 0 0 0 0 0 0 0 0 0 0 0 0 0 0 0 0 0 0 0 0 0 0 0 0 0 0 0 0 0 0 0 0 0 0 0 0 0 0 0 0
0 0 0 0 0 0 0 0 0 0 0 0 0 0 0 0 0 0 0 0 0 0 0 0 0 0 0 0 0 0 0 0 0 0 0 0 0 0 0 0 0 0 0
0 0 0 0 0 0 0 0 0 0 0 0 0 0 0 0 0 0 0 0 0 0 0 0 0 0 0 0 0 0 0 0 0 0 0 0 0 0 0 0 0 0 0
0 0 0 0 0 0 0 0 0 0 0 0 0 0 0 0 0 0 0 0 0 0 0 0 0 0 0 0 0 0 0 0 0 0 0 0 0 0 0 0 0 0 0
0 0 0 0 0 0 0 0 0 0 0 0 0 0 0 0 0 0 0 0 0 0 0 0 0 0 0 0 0 0 0 0 0 0 0 0 0 0 0 0 0 0 0
0 0 0 0 0 0 0 0 0 0 0 0 0 0 0 0 0 0 0 0 0 0 0 0 0 0 0 0 0 0 0 0 0 0 0 0 0 0 0 0 0 0 0
0 0 0 0 0 0 0 0 0 0 0 0 0 0 0 0 0 0 0 0 0 0 0 0 0 0 0 0 0 0 0 0 0 0 0 0 0 0 0 0 0 0 0
0 0 0 0 0 0 0 0 0 0 0 0 0 0 0 0 0 0 0 0 0 0 0 0 0 0 0 0 0 0 0 0 0 0 0 0 0 0 0 0 0 0 0
0 0 0 0 0 0 0 0 0 0 0 0 0 0 0 0 0 0 0 0 0 0 0 0 0 0 0 0 0 0 -0 0 0 0 0 0 0 0 0 0 0 0 0
0 0 0 0 0 0 0 0 0 0 0 0 0 0 0 0 0 0 0 0 0 0 0 0 0 0 0 0 0 0 0 0 0 0 0 0 0 0 0 0 0 0 0
0 0 0 0 0 0 0 0 0 0 0 0 0 0 0 0 0 0 0 0 0 0 0 0 0 0 0 0 0 0 0 0 0 0 0 0 0 0 0 0 0 0 0
0 0 0 0 0 0 0 0 0 0 0 0 0 0 0 0 0 0 0 0 0 0 0 0 0 0 0 0 0 0 0 0 0 0 0 0 0 0 0 0 0 0 0
0 0 0 0 0 0 0 0 0 0 0 0 0 0 0 0 0 0 0 0 0 0 0 0 0 0 0 0 0 0 0 0 0 0 0 0 0 0 0 0 0 0 0
0 0 0 0 0 0 0 0 0 0 0 0 0 0 0 0 0 0 0 0 0 0 0 0 0 0 0 0 0 0 0 0 0 0 0 0 0 0 0 0 0 0 0
0 0 0 0 0 0 0 0 0 0 0 0 0 0 0 0 0 0 0 0 0 0 0 0 0 0 0 0 0 0 0 0 0 0 0 0 0 0 0 0 0 0 0
0 0 0 0 0 0 0 0 0 0 0 0 0 0 0 0 0 0 0 0 0 0 0 0 0 0 0 0 0 0 0 0 0 0 0 0 0 0 0 0 0 0 0
0 0 0 0 0 0 0 0 0 0 0 0 0 0 0 0 0 0 0 0 0 0 0 0 0 0 0 0 0 0 0 0 0 0 0 0 0 0 0 0 0 0 0
0 0 0 0 0 0 0 0 0 0 0 0 0 0 0 0 0 0 0 0 0 0 0 0 0 0 0 0 0 0 0 0 0 0 0 0 0 0 0 0 0 0 0
0 0 0 0 0 0 0 0 0 0 0 0 0 0 0 0 0 0 0 0 0 0 0 0 0 0 0 0 0 0 0 0 0 0 0 0 0 0 0 0 0 0 0
0 0 0 0 0 0 0 0 0 0 0 0 0 0 0 0 0 0 0 0 0 0 0 0 0 0 0 0 0 0 0 0 0 0 0 0 0 0 0 0 0 0 0
0 0 0 0 0 0 0 0 0 0 0 0 0 0 0 0 0 0 0 0 0 0 0 0 0 0 0 0 0 0 0 0 0 0 0 0 0 0 0 0 0 0 0
Wind_Speed
8 7 7 7 7 6 6 7 6 6 7 7 7 7 7 7 7 6 6 6 7 6 5 5 6 5 3 3 3 2 3 3 4 3 2 2 1 1 1 2 3 3 4
7 7 7 6 6 6 6 6 6 6 6 6 6 6 6 6 6 6 7 6 6 6 6 6 6 5 5 4 3 3 3 3 4 4 2 1 2 1 1 1 2 2 3
6 6 6 5 5 5 5 5 4 5 4 4 5 5 5 5 5 5 6 6 6 6 6 6 6 5 5 4 3 3 3 3 3 3 2 1 1 1 0 1 1 1 2
5 6 5 5 5 5 4 4 4 4 4 4 4 4 4 3 4 4 5 5 5 5 5 5 6 6 6 5 4 4 3 2 2 2 1 1 1 1 1 0 1 1 1
5 5 5 4 4 4 4 4 4 3 3 3 3 3 2 2 3 3 4 4 4 3 3 4 4 4 5 4 3 3 3 2 2 1 1 0 0 1 1 1 1 1 2
5 5 5 5 5 4 4 4 4 3 3 3 3 3 2 1 1 2 2 2 2 2 1 1 1 1 2 3 3 3 3 3 3 2 1 1 1 1 1 1 1 1 2
6 5 5 5 4 4 5 5 4 4 4 3 3 3 2 2 3 2 2 2 2 1 1 1 0 0 2 3 4 5 4 3 3 3 3 1 1 1 0 1 0 0 1
6 5 4 5 5 4 5 5 4 4 4 4 4 4 4 4 4 3 3 3 3 3 2 1 1 1 2 3 4 4 4 4 3 2 2 1 1 1 0 0 1 1 1
6 5 4 5 5 5 5 4 4 5 5 5 4 4 4 4 6 6 5 3 4 4 4 4 3 3 4 5 5 5 5 4 5 6 5 4 5 4 3 2 2 2 2
5 5 4 5 5 5 5 5 5 6 6 6 6 5 5 4 6 6 5 3 4 4 4 5 7 6 6 6 5 5 5 3 3 5 5 6 5 6 6 3 1 1 1
6 6 6 6 6 6 6 6 6 7 7 7 7 6 6 6 7 8 7 4 4 4 4 4 5 9 9 8 7 5 5 4 4 4 4 4 4 4 4 3 2 1 1
7 7 7 6 6 6 7 6 6 6 7 6 6 6 5 6 7 8 10 8 7 6 4 4 5 10 11 10 8 8 9 7 4 4 4 4 3 3 3 3 3 2 1
9 8 8 8 8 7 7 6 6 5 6 5 5 5 5 5 6 10 10 10 10 6 5 8 9 10 10 9 11 11 8 5 5 5 4 3 2 2 3 3 4 3 3
9 8 8 8 9 8 7 6 5 5 5 6 5 5 4 4 4 4 4 5 7 7 5 7 10 11 9 9 8 7 5 5 4 4 2 2 3 3 3 3 3 3 3
9 8 8 8 8 9 8 7 6 5 4 6 5 4 5 4 3 5 5 5 4 5 6 6 6 6 6 6 5 5 5 5 5 3 3 3 3 3 3 3 3 3 3
9 7 7 7 6 7 8 9 14 12 14 14 10 7 6 7 8 11 12 12 11 10 9 6 6 5 5 5 5 5 5 5 4 4 3 3 3 3 3 3 3 3 2
9 8 6 6 6 6 6 8 8 9 14 14 13 12 10 10 12 12 13 14 13 11 9 6 5 5 5 5 5 5 5 4 4 4 4 4 3 3 3 3 3 3 3
8 8 8 6 6 6 6 5 6 7 6 6 8 12 13 13 13 12 12 11 9 8 6 6 5 5 5 5 5 4 4 4 4 4 4 4 4 3 3 3 3 3 3
8 6 6 6 6 6 6 6 6 7 6 5 5 6 10 11 13 12 10 8 7 6 6 5 5 5 4 4 4 4 4 4 4 4 4 4 4 3 3 3 3 4 3
7 11 9 7 6 6 6 6 5 5 5 5 4 3 4 6 7 6 6 6 6 5 5 5 4 4 4 4 4 4 4 4 4 4 4 4 4 3 3 4 3 3 3
7 8 12 8 6 6 6 5 5 5 5 5 4 5 7 6 6 6 5 5 5 5 4 4 4 4 4 3 3 4 4 4 3 3 3 3 3 3 3 3 3 3 3
6 6 6 6 6 6 6 5 5 6 6 6 4 6 9 6 5 5 4 4 4 4 4 4 4 4 3 3 3 3 4 4 4 4 4 4 4 4 4 3 3 3 3
6 7 7 6 6 8 7 5 6 6 6 5 5 5 5 5 4 4 4 4 4 4 4 4 4 4 3 3 3 3 2 2 2 3 3 3 4 4 4 3 4 4 4
7 7 7 6 6 6 6 6 6 6 6 5 5 5 4 4 4 5 4 4 4 4 4 4 4 4 4 3 2 2 2 2 2 2 3 3 3 3 3 4 4 4 4
7 7 6 6 6 6 6 6 5 5 5 5 5 4 4 4 4 4 4 4 5 4 4 4 3 3 3 3 3 2 3 4 4 3 3 2 3 4 4 4 4 4 4
6 7 6 6 5 6 6 6 5 5 5 4 4 4 4 4 4 4 3 4 4 3 3 2 3 3 2 2 2 3 4 5 5 5 3 3 3 4 5 4 5 5 5
Wind_Direction
191 193 195 196 194 190 197 204 200 197 197 199 201 199 203 208 209 209 214 209 211 216 218 215 223 217 219 224 211 199 198 184 219 257 252 259 251 259 256 233 230 226 234
189 186 189 189 186 188 194 199 195 195 195 194 194 195 200 202 201 201 209 207 206 210 216 216 225 219 218 220 210 211 213 204 201 238 259 258 251 252 243 241 246 230 237
175 174 175 176 179 185 188 184 180 180 178 179 180 187 196 201 202 205 202 205 209 213 214 213 219 214 222 221 211 214 218 217 197 206 242 249 266 292 350 304 292 312 269
157 159 164 171 176 175 172 166 163 160 160 169 174 180 188 192 199 198 197 205 211 217 220 218 217 212 216 213 213 217 207 195 190 198 222 268 303 319 60 323 328 325 305
136 142 150 151 146 144 146 148 145 140 142 148 151 157 166 183 207 197 196 198 203 211 222 222 219 203 197 194 198 202 191 181 175 177 187 126 335 9 320 287 274 295 299
121 129 131 127 126 127 134 133 126 122 119 118 127 127 128 175 153 161 166 168 168 176 202 231 220 196 174 155 147 139 144 164 179 173 168 170 237 255 290 316 326 350 313
109 113 120 125 125 127 129 123 122 117 110 109 113 110 97 65 77 93 111 117 110 129 152 162 172 101 139 129 104 93 85 94 131 156 147 177 215 277 321 338 324 249 258
97 98 105 116 117 117 115 116 117 110 108 104 97 95 89 66 67 87 101 98 87 76 72 95 118 79 94 119 112 95 79 64 77 99 114 107 87 53 101 243 262 285 300
90 87 92 103 110 111 110 112 112 107 97 91 85 83 82 61 60 77 90 91 80 65 56 57 80 85 79 105 112 105 87 63 63 76 82 71 57 49 62 63 37 33 346
92 87 86 94 103 107 108 105 99 99 98 92 78 67 70 64 61 72 83 92 88 73 58 52 57 70 74 85 102 104 95 70 62 60 54 41 36 33 39 57 66 58 13
92 86 81 82 89 93 91 90 96 97 92 86 80 64 56 53 59 64 74 86 93 85 71 55 48 60 65 69 77 83 90 88 75 73 60 44 34 30 22 20 34 87 89
90 85 80 76 81 86 90 89 91 98 96 89 83 69 52 45 52 62 69 76 87 90 80 67 60 64 66 64 67 73 76 74 70 67 62 47 36 22 4 6 18 32 61
90 85 82 79 73 73 82 88 87 88 94 91 87 81 63 47 47 56 67 74 79 84 80 80 75 69 65 60 59 64 64 65 68 68 60 40 19 9 13 15 15 21 25
96 91 88 86 78 68 65 65 74 79 94 96 94 90 78 58 43 43 57 70 73 76 75 71 69 67 65 61 55 50 51 58 70 70 55 24 17 23 23 19 16 10 16
101 99 95 90 89 81 70 57 62 47 69 100 99 99 94 77 45 70 87 78 80 86 86 69 58 53 52 48 46 43 43 46 48 41 41 31 24 25 15 11 23 28 25
109 106 104 102 97 96 95 78 57 65 66 69 77 88 75 85 85 77 76 76 78 85 81 72 65 60 58 54 51 44 39 38 33 37 39 34 29 27 18 13 23 34 16
117 115 111 109 109 106 103 102 94 67 62 63 68 77 84 85 79 79 79 73 69 76 77 73 68 63 58 55 51 49 40 30 34 41 41 33 28 24 23 15 8 6 355
112 114 115 114 112 107 103 101 102 103 89 62 53 69 77 76 73 74 77 75 62 58 67 71 67 62 60 57 51 47 40 33 32 29 26 22 20 19 13 4 359 354 343
113 117 116 115 111 106 102 97 94 93 94 90 75 63 68 72 67 64 67 75 80 72 68 67 65 65 62 58 51 46 43 35 28 26 21 14 8 12 6 355 351 353 351
106 110 112 113 110 106 103 101 98 96 93 88 83 77 69 73 70 60 62 72 78 77 75 74 68 66 63 59 53 45 38 28 22 21 13 6 2 8 5 358 352 345 336
109 110 108 106 106 108 108 107 106 102 96 88 80 84 96 91 88 81 76 74 80 84 83 78 72 66 62 60 56 50 45 31 21 12 4 358 355 354 346 346 342 341 337
108 108 109 111 110 107 107 106 105 103 102 99 88 83 84 84 84 82 79 77 77 81 88 89 79 68 65 66 62 56 45 28 12 4 356 351 351 347 344 343 342 339 338
109 109 105 105 107 110 105 102 102 102 101 101 100 92 87 87 87 87 87 87 85 82 80 84 86 74 63 58 56 62 55 13 337 334 343 343 343 341 341 338 335 335 335
104 106 107 107 106 108 108 106 106 107 107 104 101 100 99 96 93 92 93 93 91 87 84 87 91 92 84 67 50 38 23 342 325 325 332 331 332 333 335 335 330 328 327
102 104 104 105 109 110 110 109 108 109 110 111 112 110 105 99 96 95 98 99 100 98 95 94 88 84 84 74 56 26 2 2 1 352 343 343 340 337 337 335 334 330 330
105 106 105 107 110 113 115 115 115 115 116 116 114 113 112 111 109 108 107 107 110 109 105 101 100 97 86 71 46 25 8 1 359 358 354 350 350 345 343 338 337 337 333